Home   Weather   Bayreuth   Past weeks

Flag for Germany Past Weather in Bayreuth, Bavaria, Germany — Yesterday and Last 2 Weeks

Now
43 °F

Sunny.


Feels Like: 43 °F
Forecast: 43 / 50 °F
Wind: No wind

Location: Grafenwoehr

Current Time: May 1, 2017 at 6:34:56 am

Latest Report: May 1, 2017 at 5:58 am


Visibility: N/A

Pressure: 29.78 "Hg

Humidity: 76%

Dew Point: 36 °F

Location of BayreuthLocation

Past Weather in Bayreuth — Graph

°F

Bayreuth Temperature Yesterday

Maximum temperature yesterday: 59 °F (at 3:58 pm)
Minimum temperature yesterday: 32 °F (at 2:58 am)
Average temperature yesterday: 45 °F

High & Low Weather Summary for the Past Weeks

 TemperatureHumidityPressure
High59 °F (Apr 30, 3:58 pm)100% (Apr 17, 12:01 pm)30.58 "Hg (Apr 17, 12:01 pm)
Low21 °F (Apr 21, 4:58 am)33% (Apr 21, 2:58 pm)29.70 "Hg (Apr 25, 5:58 am)
Average40 °F77%30.05 "Hg
* Reported Apr 16 4:58 am — May 1 4:58 am, Bayreuth, Weather by CustomWeather, © 2017

Note: Actual official high and low records may vary slightly from our data, if they occured in-between our weather recording intervals... More about our weather records

Advertising

Bayreuth Weather History for the Previous 24 Hours

Scroll right to see more
 ConditionsComfort  
Time TempWeatherWind HumidityBarometerVisibility
4:58 am
Mon, May 1
43 °FClear.5 mph76%29.78 "HgN/A
3:58 am43 °FClear.5 mph71%29.78 "HgN/A
2:58 am45 °FClear.5 mph66%29.79 "HgN/A
1:58 am45 °FClear.6 mph66%29.81 "HgN/A
12:58 am46 °FClear.6 mph62%29.82 "HgN/A
11:58 pm
Sun, Apr 30
48 °FClear.5 mph58%29.83 "HgN/A
10:58 pm48 °FClear.5 mph58%29.83 "HgN/A
9:58 pm50 °FClear.7 mph58%29.85 "HgN/A
8:58 pm52 °FClear.6 mph54%29.85 "HgN/A
7:58 pm55 °FSunny.9 mph44%29.85 "HgN/A
6:58 pm57 °FSunny.10 mph41%29.87 "HgN/A
5:58 pm59 °FSunny.8 mph42%29.89 "HgN/A
4:58 pm59 °FSunny.10 mph42%29.90 "HgN/A
3:58 pm59 °FSunny.12 mph42%29.93 "HgN/A
2:59 pm59 °FPassing clouds.12 mph43%29.95 "HgN/A
1:58 pm55 °FSunny.9 mph44%29.98 "HgN/A
12:58 pm57 °FBroken clouds.7 mph48%29.99 "HgN/A
11:58 am54 °FOvercast.10 mph54%30.01 "HgN/A
10:58 am54 °FPassing clouds.6 mph54%30.03 "HgN/A
9:58 am50 °FSunny.8 mph62%30.05 "HgN/A
8:59 am46 °FSunny.6 mph71%30.06 "HgN/A
7:58 am41 °FSunny.3 mph93%30.06 "HgN/A
6:58 am32 °FSunny.No wind93%30.07 "HgN/A
Weather by CustomWeather, © 2017

See weather overviewHow to use our weather pages